| time (UTC) | temp F | wind direction | speed MPH | gust MPH | rain 1hr in | rain 24hr in | rain mn in | humidity % | barometer mb |
| 20260506033712 | 49 | 203 | 1.0 | 0.0 | 0.00 | 0.00 | 0.00 | ||
| 20260506032213 | 50 | 193 | 0.0 | 0.0 | 0.00 | 0.00 | 0.00 | ||
| 20260506030714 | 52 | 257 | 1.0 | 0.0 | 0.00 | 0.00 | 0.00 | ||
| 20260506023716 | 54 | 214 | 0.0 | 0.0 | 0.00 | 0.00 | 0.00 | ||
| 20260506022217 | 54 | 224 | 2.0 | 1.0 | 0.00 | 0.00 | 0.00 | ||
| 20260506020718 | 53 | 214 | 2.0 | 2.0 | 0.00 | 0.00 | 0.00 | ||
| 20260506015219 | 53 | 249 | 5.0 | 4.0 | 0.00 | 0.00 | 0.00 | ||
| 20260506013720 | 52 | 252 | 3.0 | 4.0 | 0.00 | 0.00 | 0.00 | ||
| 20260506005222 | 65 | 167 | 5.0 | 3.0 | 0.00 | 0.00 | 0.00 | ||
| 20260506002224 | 63 | 262 | 14.0 | 16.0 | 0.00 | 0.00 | 0.00 | ||
| 20260506000725 | 64 | 252 | 8.0 | 11.0 | 0.00 | 0.00 | 0.00 | ||
| 20260505235226 | 66 | 280 | 9.0 | 11.0 | 0.00 | 0.00 | 0.00 | ||
| 20260505233726 | 66 | 240 | 13.0 | 14.0 | 0.00 | 0.00 | 0.00 | ||
| 20260505232227 | 69 | 311 | 10.0 | 7.0 | 0.00 | 0.00 | 0.00 | ||
| 20260505230728 | 69 | 271 | 10.0 | 14.0 | 0.00 | 0.00 | 0.00 | ||
| 20260505225228 | 70 | 262 | 11.0 | 9.0 | 0.00 | 0.00 | 0.00 | ||
| 20260505223729 | 70 | 240 | 9.0 | 15.0 | 0.00 | 0.00 | 0.00 | ||
| 20260505222230 | 69 | 183 | 14.0 | 12.0 | 0.00 | 0.00 | 0.00 | ||
| 20260505220730 | 70 | 280 | 11.0 | 11.0 | 0.00 | 0.00 | 0.00 | ||
| 20260505205234 | 69 | 278 | 11.0 | 16.0 | 0.00 | 0.00 | 0.00 | ||
| 20260505203735 | 68 | 249 | 9.0 | 10.0 | 0.00 | 0.00 | 0.00 | ||
| 20260505202236 | 66 | 243 | 7.0 | 10.0 | 0.00 | 0.00 | 0.00 | ||
| 20260505192240 | 64 | 255 | 9.0 | 14.0 | 0.00 | 0.00 | 0.00 | ||
| 20260505185242 | 63 | 321 | 7.0 | 4.0 | 0.00 | 0.00 | 0.00 | ||
| 20260505183742 | 62 | 280 | 8.0 | 7.0 | 0.00 | 0.00 | 0.00 | ||
| 20260505180744 | 60 | 290 | 5.0 | 1.0 | 0.00 | 0.00 | 0.00 | ||
| 20260505175245 | 60 | 305 | 4.0 | 1.0 | 0.00 | 0.00 | 0.00 | ||
| 20260505173746 | 57 | 271 | 6.0 | 6.0 | 0.00 | 0.00 | 0.00 | ||
| 20260505170748 | 54 | 222 | 4.0 | 2.0 | 0.00 | 0.00 | 0.00 | ||
| 20260505165249 | 53 | 270 | 7.0 | 4.0 | 0.00 | 0.00 | 0.00 | ||
| 20260505163750 | 55 | 240 | 7.0 | 5.0 | 0.00 | 0.00 | 0.00 | ||
| 20260505162252 | 58 | 325 | 7.0 | 5.0 | 0.00 | 0.00 | 0.00 | ||
| 20260505160752 | 60 | 257 | 7.0 | 5.0 | 0.00 | 0.00 | 0.00 | ||
| 20260505152255 | 59 | 253 | 9.0 | 5.0 | 0.00 | 0.00 | 0.00 | ||
| 20260505150756 | 59 | 271 | 10.0 | 9.0 | 0.00 | 0.00 | 0.00 | ||
| 20260505122308 | 49 | 274 | 1.0 | 1.0 | 0.00 | 0.00 | 0.00 | ||
| 20260505120809 | 50 | 277 | 3.0 | 3.0 | 0.00 | 0.00 | 0.00 | ||
| 20260505115310 | 52 | 283 | 2.0 | 3.0 | 0.00 | 0.00 | 0.00 | ||
| 20260505112313 | 51 | 297 | 2.0 | 3.0 | 0.00 | 0.00 | 0.00 | ||
| 20260505110813 | 51 | 231 | 2.0 | 2.0 | 0.00 | 0.00 | 0.00 | ||
| 20260505100817 | 53 | 260 | 0.0 | 0.0 | 0.00 | 0.00 | 0.00 | ||
| 20260505092323 | 56 | 332 | 4.0 | 3.0 | 0.00 | 0.00 | 0.00 | ||
| 20260505085323 | 57 | 256 | 2.0 | 1.0 | 0.00 | 0.00 | 0.00 | ||
| 20260505083824 | 57 | 262 | 8.0 | 8.0 | 0.00 | 0.00 | 0.00 | ||
| 20260505082325 | 57 | 259 | 6.0 | 11.0 | 0.00 | 0.00 | 0.00 | ||
| 20260505080825 | 58 | 274 | 6.0 | 4.0 | 0.00 | 0.00 | 0.00 | ||
| 20260505075326 | 57 | 267 | 5.0 | 7.0 | 0.00 | 0.00 | 0.00 | ||
| 20260505073827 | 59 | 271 | 7.0 | 5.0 | 0.00 | 0.00 | 0.00 | ||
| 20260505072328 | 59 | 280 | 6.0 | 4.0 | 0.00 | 0.00 | 0.00 | ||
| 20260505070829 | 59 | 269 | 5.0 | 8.0 | 0.00 | 0.00 | 0.00 | ||
| 20260505065329 | 59 | 267 | 2.0 | 5.0 | 0.00 | 0.00 | 0.00 | ||
| 20260505063830 | 60 | 273 | 4.0 | 6.0 | 0.00 | 0.00 | 0.00 | ||
| 20260505062331 | 60 | 278 | 6.0 | 6.0 | 0.00 | 0.00 | 0.00 | ||
| 20260505060832 | 60 | 239 | 3.0 | 1.0 | 0.00 | 0.00 | 0.00 | ||
| 20260505055332 | 61 | 255 | 5.0 | 4.0 | 0.00 | 0.00 | 0.00 | ||
| 20260505053833 | 61 | 273 | 7.0 | 4.0 | 0.00 | 0.00 | 0.00 | ||
| 20260505052334 | 61 | 245 | 8.0 | 7.0 | 0.00 | 0.00 | 0.00 | ||
| 20260505050837 | 62 | 291 | 8.0 | 8.0 | 0.00 | 0.00 | 0.00 | ||
| 20260505040838 | 64 | 283 | 5.0 | 5.0 | 0.00 | 0.00 | 0.00 | ||
| 20260505035339 | 65 | 342 | 6.0 | 5.0 | 0.00 | 0.00 | 0.00 | ||
| 20260505033839 | 66 | 316 | 4.0 | 6.0 | 0.00 | 0.00 | 0.00 |